DW9936 Weather Reports


time (UTC)temp
C
wind
direction
speed
KPH
gust
KPH
rain 1hr
cm
rain 24hr
cm
rain mn
cm
humidity
%
barometer
mb
20260905214546 17 83 0.0 0.0 0.00 0.00 0.00 77 1022.7
20260905213043 17 87 0.0 0.0 0.00 0.00 0.00 77 1022.4
20260905211546 17 87 0.0 0.0 0.00 0.00 0.00 77 1022.2
20260905210058 17 87 0.0 0.0 0.00 0.00 0.00 76 1022.2
20260905204541 18 90 0.0 0.0 0.00 0.00 0.00 76 1022.1
20260905203041 18 90 0.0 0.0 0.00 0.00 0.00 74 1022.0
20260905201540 18 90 0.0 0.0 0.00 0.00 0.00 74 1021.8
20260905200052 18 92 0.0 0.0 0.00 0.00 0.00 71 1021.7
20260905194537 20 92 0.0 0.0 0.00 0.00 0.00 69 1021.6
20260905193033 20 92 0.0 0.0 0.00 0.00 0.00 66 1021.4
20260905191536 21 33 0.0 0.0 0.00 0.00 0.00 64 1021.4
20260905190031 21 23 0.0 1.6 0.00 0.00 0.00 63 1021.2
20260905184534 21 36 0.0 0.0 0.00 0.00 0.00 62 1021.0
20260905183028 21 94 0.0 0.0 0.00 0.00 0.00 61 1020.8
20260905181528 21 330 0.0 1.6 0.00 0.00 0.00 60 1020.6
20260905180029 22 19 0.0 1.6 0.00 0.00 0.00 58 1020.3
20260905174527 22 319 0.0 6.4 0.00 0.00 0.00 57 1020.1
20260905173026 22 27 0.0 1.6 0.00 0.00 0.00 55 1019.9
20260905171539 22 339 0.0 3.2 0.00 0.00 0.00 54 1019.8
20260905170030 23 10 0.0 8.0 0.00 0.00 0.00 52 1019.6
20260905164525 23 221 0.0 3.2 0.00 0.00 0.00 52 1019.5
20260905163025 23 104 0.0 3.2 0.00 0.00 0.00 51 1019.4
20260905161535 23 332 0.0 6.4 0.00 0.00 0.00 51 1019.3
20260905160036 24 355 0.0 8.0 0.00 0.00 0.00 48 1019.1
20260905154544 24 221 0.0 9.7 0.00 0.00 0.00 48 1019.1
20260905153026 24 332 0.0 12.9 0.00 0.00 0.00 48 1019.0
20260905151522 25 136 0.0 22.5 0.00 0.00 0.00 48 1019.0
20260905150021 25 14 0.0 6.4 0.00 0.00 0.00 48 1018.9
20260905144534 25 350 0.0 16.1 0.00 0.00 0.00 48 1018.8
20260905143021 25 337 0.0 9.7 0.00 0.00 0.00 49 1018.8
20260905141524 26 344 1.6 16.1 0.00 0.00 0.00 48 1018.9
20260905140026 26 307 1.6 16.1 0.00 0.00 0.00 47 1018.9
20260905134519 25 96 1.6 16.1 0.00 0.00 0.00 50 1019.0
20260905133017 25 180 1.6 12.9 0.00 0.00 0.00 50 1019.1
20260905131517 25 30 1.6 9.7 0.00 0.00 0.00 53 1019.1
20260905130019 24 311 1.6 14.5 0.00 0.00 0.00 55 1019.4
20260905124528 24 29 1.6 9.7 0.00 0.00 0.00 54 1019.4
20260905123015 24 196 0.0 6.4 0.00 0.00 0.00 56 1019.5
20260905121518 24 333 0.0 9.7 0.00 0.00 0.00 56 1019.5
20260905120014 24 144 1.6 17.7 0.00 0.00 0.00 54 1019.6
20260905114513 23 119 1.6 9.7 0.00 0.00 0.00 58 1019.5
20260905113013 23 76 1.6 12.9 0.00 0.00 0.00 57 1019.5
20260905111511 23 340 1.6 17.7 0.00 0.00 0.00 60 1019.6
20260905110010 22 184 1.6 16.1 0.00 0.00 0.00 65 1019.5
20260905104515 21 146 1.6 9.7 0.00 0.00 0.00 70 1019.5
20260905103007 20 324 1.6 9.7 0.00 0.00 0.00 75 1019.6
20260905101507 19 5 0.0 9.7 0.00 0.00 0.00 79 1019.8
20260905100006 18 160 0.0 9.7 0.00 0.00 0.00 83 1020.1
20260905094505 17 192 0.0 16.1 0.00 0.00 0.00 85 1020.1
20260905093004 17 215 0.0 4.8 0.00 0.00 0.00 90 1020.1
20260905091504 16 239 0.0 4.8 0.00 0.00 0.00 90 1020.3
20260905090002 16 171 0.0 9.7 0.00 0.00 0.00 91 1020.4
20260905084559 16 258 0.0 12.9 0.00 0.00 0.00 91 1020.1
20260905083053 15 181 0.0 9.7 0.00 0.00 0.00 91 1020.1
20260905081600 15 237 0.0 1.6 0.00 0.00 0.00 91 1020.1
20260905080057 15 200 0.0 8.0 0.00 0.00 0.00 91 1020.3
20260905074549 15 238 0.0 3.2 0.00 0.00 0.00 91 1020.4
20260905073048 15 218 0.0 3.2 0.00 0.00 0.00 90 1020.5
20260905071554 15 234 0.0 4.8 0.00 0.00 0.00 90 1020.3
20260905070048 15 240 0.0 1.6 0.00 0.00 0.00 89 1020.9
20260905064548 15 229 0.0 0.0 0.00 0.00 0.00 89 1019.8
20260905063040 15 229 0.0 0.0 0.00 0.00 0.00 88 1019.2
20260905061553 16 229 0.0 1.6 0.00 0.00 0.00 86 1019.8
20260905060033 16 269 0.0 3.2 0.00 0.00 0.00 83 1019.4
20260905054531 16 355 0.0 3.2 0.00 0.00 0.00 81 1019.0
20260905053027 17 355 0.0 0.0 0.00 0.00 0.00 81 1019.1
20260905051532 18 355 0.0 6.4 0.00 0.00 0.00 73 1018.7
20260905050022 20 28 0.0 6.4 0.00 0.00 0.00 63 1018.3
20260905044523 20 341 1.6 8.0 0.00 0.00 0.00 56 1017.6
20260905043016 20 320 0.0 8.0 0.00 0.00 0.00 57 1017.0
20260905041515 21 336 0.0 4.8 0.00 0.00 0.00 57 1017.0
20260905040018 21 319 1.6 9.7 0.00 0.00 0.00 55 1016.8
20260905034513 21 349 1.6 8.0 0.00 0.00 0.00 56 1016.3
20260905033009 21 355 1.6 12.9 0.00 0.00 0.00 58 1015.9
20260905031506 21 341 3.2 12.9 0.00 0.00 0.00 59 1015.7
20260905030005 22 340 4.8 16.1 0.00 0.00 0.00 57 1015.2
20260905024502 23 350 1.6 8.0 0.00 0.00 0.00 56 1014.4
20260905023104 25 355 0.0 3.2 0.00 0.00 0.00 52 1013.3
20260905021556 26 355 0.0 4.8 0.00 0.00 0.00 51 1012.8
20260905020055 26 309 0.0 3.2 0.00 0.00 0.00 50 1012.8
20260905014554 26 355 0.0 4.8 0.00 0.00 0.00 51 1012.7
20260905013057 25 342 1.6 14.5 0.00 0.00 0.00 54 1012.6
20260905011545 23 333 0.0 9.7 0.00 0.00 0.00 62 1012.6
20260905010046 20 323 0.0 4.8 0.00 0.00 0.00 71 1012.6
20260905004539 19 278 0.0 0.0 0.00 0.00 0.00 71 1012.5
20260905003038 19 278 0.0 0.0 0.00 0.00 0.00 71 1012.4
20260905001538 19 278 0.0 0.0 0.00 0.00 0.00 70 1012.3
20260905000038 19 278 0.0 0.0 0.00 0.00 0.00 70 1012.4
20260904234543 18 278 0.0 0.0 0.00 0.00 0.00 70 1012.3
20260904233036 18 278 0.0 0.0 0.00 0.00 0.00 71 1012.3
20260904231533 18 278 0.0 0.0 0.00 0.00 0.00 69 1012.2
20260904230030 18 278 0.0 0.0 0.00 0.00 0.00 69 1012.1
20260904224538 19 278 0.0 1.6 0.00 0.00 0.00 69 1012.1
20260904223027 19 278 0.0 0.0 0.00 0.00 0.00 68 1011.9
20260904221527 19 278 0.0 0.0 0.00 0.00 0.00 68 1011.9
20260904220030 19 278 0.0 0.0 0.00 0.00 0.00 66 1011.9